Regional Weather Roundup
Issued by NWS

Home | Current Version | Previous Version | Graphics & Text | Print | Product List | Glossary On
Versions: 1 2 3 4 5 6 7 8 9 10 11 12 13 14 15 16 17 18 19 20 21 22 23 24 25 26 27 28 29 30 31 32 33 34 35 36 37 38 39 40 41 42 43 44 45 46 47 48 49 50
000
ASUS45 KBOU 260210
RWRCO

WEATHER ROUNDUP FOR COLORADO
NATIONAL WEATHER SERVICE DENVER/BOULDER CO
800 PM MDT SUN SEP 25 2016

NOTE: "FAIR" INDICATES FEW OR NO CLOUDS BELOW 12000 FEET WITH NO
SIGNIFICANT WEATHER AND/OR OBSTRUCTIONS TO VISIBILITY.

COZ001>005-013-030-031-260300-
...NORTHWEST COLORADO...

CITY           SKY/WX    TMP DP  RH WIND       PRES   REMARKS
CRAIG          FAIR      47  36  65 SW3       30.48R
HAYDEN         FAIR      50  30  46 SW6       30.49R
MEEKER         FAIR      54  32  43 N3        30.47R
MOUNT WERNER   NOT AVBL
STEAMBOAT SPGS FAIR      49  35  59 CALM      30.50R
WALDEN           N/A     43  27  52 N8        30.55R
$$

COZ006>008-011-260300-
...WEST CENTRAL VALLEYS...

CITY           SKY/WX    TMP DP  RH WIND       PRES   REMARKS
GRAND JUNCTION FAIR      60  41  49 N7        30.35R
MONTROSE       FAIR      56  40  55 SE5       30.42R
EAGLE          FAIR      57  34  41 CALM      30.46R
RIFLE          FAIR      61  39  44 NW6       30.40R
DELTA          FAIR      63  40  42 N8        30.37R
NUCLA          FAIR      59  30  33 NW9       30.41R
$$

COZ017>023-064>068-260300-
...SOUTHWEST COLORADO...

CITY           SKY/WX    TMP DP  RH WIND       PRES   REMARKS
DURANGO        FAIR      59  31  34 SW8       30.38R
CORTEZ         FAIR      58  36  43 SW5       30.35R
PAGOSA SPRINGS FAIR      55  30  38 NW3       30.44R
TELLURIDE      FAIR      50  37  60 CALM      30.55R
WOLF CREEK PAS FAIR      37  28  70 MISG      30.70R
$$

COZ009-010-012-014-032>034-037-058>063-260300-
...CENTRAL COLORADO...

CITY           SKY/WX    TMP DP  RH WIND       PRES   REMARKS
ASPEN          FAIR      47  33  58 SW7       30.50R
BUENA VISTA    FAIR      55  28  35 S6        30.48R
COPPER MTN     FAIR      41  23  48 W7        30.70R
BERTHOUD PASS  FAIR      32  19  59 NW16      30.70F WCI  21
COTTONWOOD PAS FAIR      52  27  37 CALM      30.57R
GUNNISON       FAIR      55  34  44 CALM      30.46R
KREMMLING      FAIR      52  21  30 CALM      30.51R
LEADVILLE      FAIR      44  20  38 N7        30.58R
MONARCH PASS   FAIR      39  21  48 W15       30.78R
SALIDA         FAIR      57  29  34 SE16G25   30.52R
SUNLIGHT       FAIR      41  32  70 N3        30.68R
WILKERSON PASS FAIR      36  27  69 E13G22    30.68R
$$

COZ069>075-260300-
...SAN LUIS VALLEY/SANGRE DE CRISTO MOUNTAINS...

CITY           SKY/WX    TMP DP  RH WIND       PRES   REMARKS
ALAMOSA        FAIR      51  28  41 SE8       30.43R
LA VETA PASS   FAIR      39  28  65 MISG      30.59S
SAGUACHE       NOT AVBL
$$

COZ035-036-038>040-260300-
...NORTHERN COLORADO FRONT RANGE...

CITY           SKY/WX    TMP DP  RH WIND       PRES   REMARKS
DENVER INTL AP FAIR      58  28  32 E6        30.41R
DMNS CITY PARK NOT AVBL
AURORA         CLEAR     52  28  39 SE7       30.43R
FRONT RANGE AP CLEAR     57  28  33 E7        30.42R
ERIE MUNI ARPT FAIR      55  33  43 CALM      30.40R
BOULDER MUN AP FAIR      59  37  44 SW3       30.40R
CENTENNIAL     FAIR      56  28  34 SE5       30.43R
BROOMFIELD     NOT AVBL
FORT COLLINS   FAIR      57  36  44 S5        30.39R
LONGMONT       FAIR      54  36  51 NW6       30.42R
$$

COZ041-046-047-076>085-087-088-260300-
...PIKES PEAK/PALMER DIVIDE AND SOUTHERN FOOTHILLS...

CITY           SKY/WX    TMP DP  RH WIND       PRES   REMARKS
COLO. SPRINGS  FAIR      57  29  34 S8        30.46R
A. F. ACADEMY  FAIR      53  30  40 CALM      30.46R
SCHRIEVER AFB  NOT AVBL
ELLICOTT       NOT AVBL
FALCON         FAIR      50  31  47 SW3       30.49R
FORT CARSON    FAIR      57  29  34 SW5       30.43R
LIMON          FAIR      45  24  43 N6        30.42R
MONUMENT HILL  FAIR      46  28  49 SE5       30.50R
TRINIDAD       FAIR      56  30  37 E5        30.42R
$$

COZ042>045-048>051-090-091-260300-
...NORTHEAST COLORADO...

CITY           SKY/WX    TMP DP  RH WIND       PRES   REMARKS
GREELEY ARPT   FAIR      57  36  44 CALM      30.39R
AKRON          FAIR      54  32  43 E9        30.40R
BURLINGTON     FAIR      53  35  50 NE7       30.39R
WRAY           FAIR      50  32  50 N7        30.37
STERLING       FAIR      55  37  50 CALM      30.36S
HOLYOKE        FAIR      54  36  50 CALM      30.37R
FORT MORGAN    FAIR      51  33  50 NE8       30.41R
$$

COZ086-089-092>099-260300-
...SOUTHEAST COLORADO...

CITY           SKY/WX    TMP DP  RH WIND       PRES   REMARKS
PUEBLO         FAIR      63  31  30 SE5       30.38R
LA JUNTA       FAIR      62  31  31 E5        30.36R
LAMAR          FAIR      59  33  37 E6        30.34R
SPRINGFIELD    NOT AVBL
$$



USA.gov is the U.S. government's official web portal to all federal, state and local government web resources and services.